GFSNW_850_dewp_351.txt.gz
Dewpoint
-27 -26 -26 -27 -28 -30 -23 -22 -16 -18 -18 -13 -10 -8 -9 -9 -9 -9 -9 -9 -7 -7 -7 -8 -9 -8 -9 -11 -9 -5 -6 -7 -6 -5 -6 -7 -5 -5 -4 -1 1 -2 -1 -3
-27 -26 -26 -26 -27 -29 -21 -17 -15 -14 -17 -10 -8 -9 -10 -9 -8 -8 -8 -8 -8 -9 -7 -10 -10 -9 -11 -10 -8 -6 -7 -8 -8 -9 -9 -9 -5 -6 -5 -4 -4 -4 -4 -3
-27 -26 -25 -26 -26 -28 -23 -17 -14 -15 -11 -9 -8 -8 -7 -8 -9 -8 -8 -8 -9 -8 -8 -10 -10 -9 -9 -10 -9 -8 -10 -9 -8 -5 -4 -6 -6 -5 -6 -7 -4 -4 -3 -4
-26 -25 -25 -25 -26 -26 -23 -15 -6 -8 -9 -8 -9 -8 -8 -8 -7 -9 -9 -9 -9 -9 -10 -10 -9 -9 -9 -11 -9 -9 -11 -7 -8 -9 -8 -7 -8 -5 -6 -6 -5 -4 -3 -4
-26 -25 -24 -24 -24 -24 -25 -14 -10 -6 -6 -9 -9 -8 -9 -7 -7 -8 -8 -8 -9 -13 -11 -9 -7 -8 -12 -11 -10 -9 -11 -8 -9 -11 -10 -10 -8 -8 -8 -7 -7 -6 -4 -4
-25 -24 -23 -23 -23 -22 -20 -15 -11 -7 -7 -8 -10 -9 -9 -7 -8 -10 -9 -8 -11 -12 -11 -10 -9 -9 -8 -8 -7 -9 -11 -9 -10 -10 -10 -12 -8 -6 -6 -7 -7 -7 -6 -6
-24 -23 -22 -22 -21 -21 -18 -17 -13 -13 -11 -9 -6 -8 -7 -7 -8 -10 -8 -9 -11 -11 -10 -9 -8 -8 -8 -8 -9 -8 -10 -17 -15 -9 -12 -8 -8 -9 -7 -6 -7 -8 -7 -7
-23 -22 -21 -20 -19 -19 -17 -16 -14 -14 -14 -7 -9 -7 -7 -9 -10 -8 -9 -10 -10 -10 -10 -12 -13 -11 -13 -12 -13 -13 -15 -16 -14 -10 -12 -11 -12 -8 -8 -7 -6 -8 -8 -8
-21 -21 -21 -20 -18 -17 -15 -14 -14 -13 -12 -11 -8 -7 -7 -10 -8 -11 -11 -12 -10 -12 -10 -11 -11 -8 -9 -10 -10 -12 -13 -18 -13 -14 -12 -9 -12 -11 -9 -8 -7 -8 -8 -8
-19 -20 -19 -18 -18 -12 -10 -10 -10 -12 -11 -12 -8 -8 -10 -7 -8 -11 -10 -10 -11 -12 -10 -9 -9 -9 -12 -10 -11 -10 -10 -13 -12 -13 -15 -12 -14 -10 -10 -9 -8 -8 -8 -8
-15 -19 -18 -16 -7 -4 -5 -6 -7 -8 -12 -13 -9 -8 -8 -8 -8 -13 -11 -12 -11 -11 -11 -11 -12 -12 -12 -11 -12 -10 -10 -13 -13 -15 -15 -12 -10 -10 -10 -11 -9 -9 -9 -8
-8 -16 -17 -12 -3 -3 -3 -4 -5 -6 -11 -12 -12 -9 -9 -9 -9 -8 -9 -10 -8 -9 -13 -14 -15 -12 -15 -12 -11 -11 -11 -12 -12 -13 -13 -13 -9 -10 -9 -9 -9 -9 -9 -8
-1 -13 -16 -10 -5 -3 -3 -3 -4 -5 -9 -11 -12 -12 -12 -11 -10 -8 -8 -8 -9 -9 -9 -11 -14 -11 -11 -12 -12 -12 -13 -11 -12 -12 -14 -11 -9 -10 -12 -12 -12 -10 -10 -9
-1 -11 -15 -13 -6 -3 -3 -3 -4 -5 -9 -9 -13 -9 -7 -9 -9 -8 -7 -8 -8 -9 -9 -9 -14 -12 -10 -12 -12 -11 -12 -12 -14 -13 -13 -12 -10 -9 -9 -10 -10 -13 -12 -11
-0 -5 -12 -14 -10 -7 -6 -3 -4 -5 -10 -11 -12 -11 -10 -8 -8 -7 -7 -7 -7 -8 -9 -11 -11 -10 -9 -12 -12 -13 -11 -13 -12 -13 -14 -12 -11 -12 -9 -10 -10 -13 -13 -13
0 -3 -10 -13 -11 -10 -5 -5 -8 -8 -9 -9 -11 -11 -8 -8 -8 -8 -7 -7 -9 -9 -9 -9 -9 -8 -9 -13 -11 -14 -11 -10 -12 -12 -13 -12 -11 -13 -12 -11 -12 -13 -15 -15
0 -1 -8 -11 -9 -9 -6 -7 -7 -8 -7 -8 -10 -12 -7 -7 -8 -9 -8 -8 -9 -9 -9 -9 -9 -8 -9 -15 -12 -14 -13 -11 -11 -10 -12 -14 -17 -16 -16 -14 -14 -14 -15 -17
0 -1 -7 -8 -5 -4 -5 -5 -5 -6 -8 -8 -10 -12 -10 -10 -10 -9 -8 -8 -9 -9 -9 -9 -9 -10 -11 -11 -12 -13 -12 -11 -10 -13 -15 -18 -20 -17 -17 -15 -15 -16 -16 -18
0 -1 -6 -6 -5 -5 -5 -6 -7 -6 -8 -8 -10 -12 -14 -9 -9 -9 -9 -10 -12 -10 -10 -11 -10 -12 -11 -12 -13 -13 -13 -13 -12 -14 -15 -17 -16 -15 -15 -14 -14 -14 -13 -13
-0 -2 -8 -8 -6 -7 -8 -7 -8 -8 -7 -7 -9 -10 -11 -10 -9 -10 -10 -10 -14 -13 -12 -11 -11 -11 -12 -12 -12 -12 -13 -11 -12 -15 -16 -15 -14 -13 -13 -13 -12 -12 -11 -11
-1 -6 -9 -7 -7 -6 -8 -9 -10 -11 -10 -9 -10 -10 -11 -10 -11 -13 -11 -15 -15 -13 -12 -12 -12 -12 -12 -11 -13 -12 -11 -13 -12 -11 -14 -13 -11 -11 -11 -11 -11 -11 -11 -10
-1 -2 -3 -5 -7 -9 -11 -15 -13 -14 -11 -12 -9 -9 -9 -10 -10 -11 -12 -15 -15 -11 -13 -13 -11 -13 -12 -11 -13 -14 -13 -12 -12 -12 -13 -13 -11 -12 -12 -11 -11 -10 -10 -10
-2 -3 -7 -8 -9 -9 -9 -13 -14 -13 -13 -10 -10 -11 -10 -11 -11 -12 -14 -13 -13 -14 -15 -11 -12 -14 -13 -12 -13 -13 -13 -13 -13 -12 -12 -11 -11 -12 -12 -11 -11 -12 -13 -13
-2 -4 -7 -7 -6 -8 -9 -10 -11 -12 -11 -11 -11 -10 -9 -10 -11 -12 -11 -12 -14 -14 -13 -11 -13 -14 -12 -12 -12 -12 -12 -12 -12 -12 -13 -13 -12 -12 -11 -11 -15 -17 -16 -16
-3 -5 -5 -6 -8 -8 -8 -12 -9 -12 -10 -7 -8 -9 -9 -11 -11 -12 -12 -11 -10 -10 -11 -13 -13 -13 -12 -12 -12 -12 -12 -12 -12 -12 -11 -12 -12 -11 -10 -10 -10 -11 -11 -12
-4 -5 -6 -6 -6 -5 -6 -6 -7 -7 -7 -8 -8 -9 -10 -10 -11 -12 -10 -9 -10 -10 -12 -13 -14 -12 -12 -12 -12 -12 -12 -12 -12 -11 -11 -11 -11 -10 -10 -11 -11 -11 -13 -16
-5 -6 -5 -6 -5 -4 -4 -5 -6 -6 -8 -8 -8 -8 -8 -11 -10 -10 -11 -10 -10 -15 -13 -12 -12 -12 -12 -12 -12 -13 -12 -11 -11 -11 -11 -11 -11 -12 -12 -12 -12 -13 -16 -17

GFSNW_850_dewp_354.txt.gz
Dewpoint
-28 -27 -27 -28 -28 -31 -28 -26 -20 -22 -21 -13 -10 -8 -9 -9 -9 -9 -9 -9 -7 -7 -8 -8 -10 -9 -10 -11 -10 -5 -7 -8 -7 -7 -6 -8 -6 -5 -5 -3 -0 -3 -5 -4
-28 -27 -26 -27 -28 -29 -27 -22 -19 -18 -20 -11 -8 -10 -10 -9 -8 -8 -8 -7 -8 -9 -8 -9 -11 -10 -11 -10 -9 -5 -8 -8 -7 -9 -9 -10 -6 -5 -5 -4 -4 -4 -6 -6
-27 -26 -25 -26 -27 -28 -25 -20 -16 -17 -14 -10 -9 -8 -8 -9 -10 -9 -9 -8 -10 -8 -9 -10 -10 -9 -9 -10 -9 -8 -11 -9 -8 -5 -4 -5 -6 -6 -6 -6 -4 -4 -4 -5
-26 -26 -25 -25 -25 -26 -26 -18 -8 -10 -12 -10 -10 -8 -8 -7 -8 -9 -9 -9 -8 -10 -10 -10 -10 -9 -10 -11 -9 -10 -12 -8 -8 -9 -9 -6 -9 -6 -6 -6 -6 -4 -4 -4
-26 -25 -25 -24 -24 -24 -25 -17 -13 -8 -6 -9 -11 -9 -10 -7 -7 -8 -9 -8 -8 -13 -12 -11 -9 -9 -13 -11 -10 -11 -11 -9 -9 -11 -11 -11 -8 -8 -8 -8 -7 -7 -8 -6
-23 -24 -24 -24 -23 -22 -21 -17 -14 -9 -9 -9 -11 -10 -10 -8 -8 -11 -9 -8 -11 -13 -12 -10 -10 -9 -9 -8 -8 -9 -9 -11 -11 -10 -11 -12 -8 -6 -7 -6 -7 -7 -7 -7
-14 -22 -23 -23 -22 -21 -19 -18 -15 -14 -12 -10 -7 -8 -8 -8 -8 -11 -9 -9 -12 -12 -10 -10 -9 -8 -8 -9 -9 -8 -10 -18 -17 -10 -13 -8 -10 -10 -9 -6 -7 -8 -7 -7
-5 -19 -22 -22 -21 -19 -17 -16 -15 -14 -15 -8 -10 -8 -8 -9 -10 -9 -9 -11 -10 -11 -11 -13 -13 -12 -15 -13 -13 -13 -16 -17 -14 -11 -14 -12 -12 -9 -8 -7 -7 -8 -8 -8
-2 -13 -19 -21 -20 -16 -12 -10 -11 -13 -13 -13 -12 -9 -8 -11 -12 -13 -12 -12 -11 -13 -11 -11 -11 -10 -9 -10 -11 -12 -14 -20 -14 -15 -12 -9 -12 -13 -10 -8 -7 -8 -8 -8
0 -6 -15 -18 -19 -16 -9 -5 -6 -9 -11 -15 -11 -9 -11 -8 -9 -11 -11 -10 -12 -13 -12 -10 -9 -9 -12 -11 -13 -12 -11 -13 -13 -14 -15 -13 -14 -12 -10 -10 -8 -8 -9 -9
1 -2 -12 -17 -12 -3 -3 -4 -5 -6 -8 -14 -13 -10 -10 -10 -9 -14 -12 -13 -12 -12 -13 -12 -12 -12 -12 -12 -13 -13 -12 -13 -13 -16 -16 -13 -11 -11 -10 -11 -9 -9 -9 -9
0 -1 -9 -15 -9 -4 -3 -4 -4 -4 -6 -12 -13 -13 -11 -8 -8 -8 -8 -11 -9 -10 -14 -16 -16 -12 -14 -13 -11 -12 -11 -13 -13 -13 -13 -15 -9 -11 -10 -10 -10 -10 -10 -9
-0 0 -3 -10 -12 -4 -3 -3 -4 -4 -6 -11 -11 -13 -12 -10 -9 -9 -8 -9 -9 -10 -10 -11 -16 -12 -11 -11 -12 -12 -13 -12 -11 -12 -15 -13 -10 -11 -11 -12 -12 -12 -12 -11
-1 0 -0 -4 -11 -4 -3 -4 -4 -5 -5 -9 -14 -12 -9 -9 -9 -8 -7 -7 -8 -9 -9 -9 -16 -12 -11 -11 -12 -11 -12 -12 -14 -13 -13 -13 -13 -11 -10 -10 -11 -11 -13 -13
-1 -0 0 -3 -8 -10 -7 -3 -4 -5 -7 -10 -12 -11 -10 -7 -7 -7 -7 -7 -7 -8 -9 -13 -12 -11 -11 -12 -13 -13 -12 -13 -12 -14 -17 -14 -13 -12 -12 -9 -9 -10 -13 -14
-1 -1 0 -1 -3 -9 -5 -5 -8 -7 -6 -7 -10 -11 -8 -7 -7 -7 -7 -7 -8 -9 -9 -9 -9 -9 -9 -13 -11 -14 -12 -11 -11 -13 -12 -12 -12 -12 -15 -14 -11 -11 -14 -15
-1 -1 -0 -0 -2 -5 -5 -6 -6 -8 -7 -7 -9 -12 -8 -7 -7 -8 -8 -8 -9 -9 -9 -9 -9 -9 -8 -16 -12 -14 -12 -13 -12 -11 -11 -12 -18 -18 -18 -17 -14 -15 -16 -17
-1 -1 0 -0 -3 -4 -4 -5 -5 -5 -7 -8 -9 -11 -12 -9 -9 -9 -8 -9 -9 -9 -9 -9 -10 -10 -11 -12 -12 -13 -13 -13 -11 -12 -11 -14 -17 -19 -17 -17 -15 -15 -16 -17
-2 -1 0 -2 -4 -5 -5 -6 -6 -6 -7 -8 -10 -12 -14 -10 -9 -9 -9 -9 -12 -10 -11 -11 -10 -13 -11 -12 -12 -13 -14 -13 -12 -12 -12 -13 -16 -16 -15 -15 -14 -14 -14 -14
-2 -1 -1 -8 -7 -7 -7 -7 -7 -8 -7 -7 -9 -9 -11 -9 -9 -10 -10 -10 -14 -14 -13 -11 -12 -12 -12 -13 -13 -13 -12 -12 -12 -12 -13 -14 -15 -14 -13 -13 -13 -13 -12 -12
-1 -1 -7 -6 -7 -5 -7 -8 -9 -11 -10 -8 -9 -10 -12 -10 -11 -11 -12 -15 -17 -14 -14 -13 -12 -12 -13 -12 -11 -13 -13 -11 -12 -12 -12 -13 -14 -12 -12 -13 -12 -11 -11 -11
-0 -1 -3 -4 -6 -8 -10 -10 -13 -13 -11 -12 -11 -10 -9 -10 -10 -11 -13 -15 -16 -12 -13 -13 -11 -12 -14 -12 -12 -13 -13 -12 -12 -11 -11 -11 -13 -14 -12 -12 -13 -12 -11 -11
-2 -2 -4 -7 -8 -7 -7 -8 -8 -10 -14 -12 -10 -10 -10 -11 -11 -12 -13 -13 -13 -14 -15 -11 -12 -14 -13 -12 -12 -13 -13 -13 -13 -13 -13 -12 -12 -12 -12 -11 -11 -12 -11 -12
-2 -3 -5 -7 -7 -8 -6 -6 -7 -15 -13 -11 -10 -11 -9 -10 -10 -11 -10 -12 -14 -13 -14 -12 -13 -14 -13 -12 -12 -12 -12 -12 -12 -12 -12 -12 -12 -12 -12 -11 -11 -11 -11 -12
-2 -4 -5 -6 -6 -6 -8 -9 -6 -7 -10 -10 -8 -8 -9 -10 -9 -11 -12 -11 -10 -10 -9 -11 -15 -14 -13 -12 -12 -12 -12 -12 -13 -13 -12 -12 -12 -11 -12 -11 -10 -10 -10 -11
-3 -4 -6 -5 -5 -5 -6 -5 -6 -6 -7 -7 -7 -9 -10 -9 -11 -12 -10 -8 -8 -9 -10 -16 -15 -14 -12 -12 -12 -12 -12 -12 -12 -12 -12 -11 -11 -11 -11 -11 -11 -11 -11 -12
-4 -6 -4 -5 -5 -4 -4 -3 -5 -6 -7 -7 -8 -8 -8 -11 -9 -9 -10 -9 -9 -14 -14 -13 -13 -12 -12 -12 -12 -13 -12 -12 -12 -12 -12 -12 -12 -12 -12 -12 -12 -12 -12 -12

GFSNW_850_dewp_357.txt.gz
Dewpoint
-28 -28 -26 -24 -24 -30 -30 -28 -23 -25 -24 -15 -10 -9 -9 -9 -9 -9 -9 -9 -8 -7 -8 -8 -9 -10 -10 -11 -10 -6 -8 -9 -9 -7 -7 -7 -6 -5 -6 -4 -3 -5 -7 -5
-27 -28 -27 -25 -23 -28 -29 -25 -23 -22 -23 -15 -10 -10 -11 -9 -9 -9 -8 -7 -9 -9 -8 -9 -11 -10 -12 -10 -9 -6 -8 -9 -8 -9 -9 -10 -6 -6 -6 -4 -3 -4 -4 -5
-25 -27 -27 -25 -23 -27 -27 -22 -18 -20 -17 -10 -9 -9 -10 -10 -10 -9 -9 -8 -10 -9 -9 -10 -10 -9 -10 -11 -9 -9 -11 -11 -9 -6 -5 -5 -6 -6 -6 -6 -4 -5 -4 -5
-15 -24 -26 -26 -23 -24 -27 -22 -9 -13 -15 -11 -10 -9 -9 -9 -9 -10 -9 -10 -8 -10 -11 -12 -10 -10 -10 -12 -10 -11 -12 -9 -9 -9 -8 -7 -8 -7 -7 -7 -6 -6 -5 -5
-6 -17 -24 -25 -24 -20 -24 -20 -18 -9 -7 -10 -12 -11 -11 -9 -8 -8 -11 -9 -9 -13 -13 -12 -13 -11 -13 -12 -10 -12 -12 -11 -10 -11 -12 -12 -8 -8 -8 -8 -8 -7 -6 -6
-2 -10 -20 -24 -23 -21 -20 -19 -16 -12 -10 -10 -13 -12 -12 -10 -8 -11 -9 -9 -11 -14 -12 -11 -10 -10 -10 -9 -8 -9 -10 -12 -12 -12 -12 -12 -8 -7 -7 -7 -8 -7 -7 -7
1 -4 -14 -21 -22 -21 -17 -17 -16 -16 -13 -10 -10 -8 -9 -9 -8 -12 -10 -9 -12 -12 -10 -11 -10 -9 -9 -9 -9 -9 -10 -20 -18 -11 -14 -10 -11 -11 -9 -8 -7 -8 -8 -8
1 -1 -8 -16 -19 -18 -14 -12 -14 -15 -13 -10 -11 -9 -9 -9 -10 -9 -8 -12 -12 -11 -12 -14 -15 -14 -14 -13 -12 -14 -15 -19 -14 -12 -14 -13 -13 -11 -8 -8 -8 -8 -8 -9
1 0 -5 -11 -16 -15 -9 -9 -9 -12 -12 -12 -16 -11 -10 -12 -13 -14 -13 -12 -11 -13 -11 -12 -12 -12 -10 -11 -13 -14 -15 -20 -15 -15 -13 -10 -13 -13 -10 -8 -9 -9 -8 -9
0 0 -4 -9 -14 -12 -9 -7 -7 -8 -10 -14 -14 -10 -12 -11 -10 -13 -12 -11 -14 -14 -12 -11 -11 -11 -13 -11 -13 -12 -11 -13 -13 -13 -16 -14 -15 -14 -10 -10 -9 -9 -9 -9
-0 0 -2 -5 -10 -13 -9 -6 -4 -5 -6 -8 -11 -11 -10 -11 -10 -13 -13 -13 -13 -13 -13 -12 -13 -13 -13 -13 -14 -14 -12 -13 -13 -16 -16 -15 -14 -11 -10 -11 -10 -9 -10 -9
-0 -1 -0 -2 -5 -11 -8 -6 -4 -4 -4 -7 -9 -11 -12 -9 -9 -9 -9 -12 -10 -11 -14 -16 -17 -12 -15 -14 -12 -13 -12 -13 -13 -14 -15 -16 -10 -11 -11 -12 -12 -13 -12 -11
-1 -1 -0 -0 -2 -6 -4 -4 -5 -4 -5 -6 -10 -12 -12 -11 -8 -7 -9 -10 -10 -11 -10 -12 -17 -14 -13 -13 -13 -13 -13 -13 -11 -11 -15 -13 -12 -11 -11 -11 -12 -12 -13 -13
2 -1 -1 -0 -0 -3 -5 -5 -4 -4 -4 -7 -12 -14 -10 -9 -10 -8 -7 -8 -9 -9 -9 -10 -18 -13 -12 -13 -13 -12 -13 -12 -12 -12 -13 -14 -14 -14 -12 -10 -10 -11 -11 -13
2 1 -1 -1 -0 -1 -3 -4 -4 -4 -6 -8 -10 -11 -10 -8 -6 -6 -6 -6 -7 -8 -9 -13 -13 -12 -12 -12 -13 -13 -12 -13 -11 -12 -16 -14 -15 -14 -14 -15 -11 -9 -10 -11
3 1 -0 -1 -0 -1 -2 -5 -7 -8 -6 -7 -9 -11 -9 -8 -7 -7 -7 -7 -8 -9 -9 -10 -9 -9 -10 -14 -12 -13 -12 -12 -13 -14 -13 -12 -11 -11 -14 -17 -16 -12 -11 -14
3 2 0 -1 -0 -0 -2 -3 -5 -5 -6 -7 -9 -11 -9 -8 -8 -8 -8 -8 -8 -9 -9 -10 -9 -9 -9 -16 -13 -13 -14 -14 -13 -12 -11 -11 -13 -18 -20 -20 -18 -14 -15 -16
3 2 -0 -1 -1 -2 -3 -4 -4 -5 -6 -7 -9 -10 -13 -8 -8 -8 -9 -9 -9 -10 -10 -10 -10 -10 -11 -12 -13 -13 -14 -13 -13 -13 -13 -12 -12 -14 -18 -17 -16 -16 -15 -15
3 1 -1 -2 -3 -4 -5 -6 -6 -6 -6 -7 -10 -11 -12 -10 -9 -9 -9 -9 -11 -11 -11 -11 -10 -13 -12 -12 -13 -13 -13 -13 -13 -12 -12 -11 -11 -13 -16 -16 -15 -14 -14 -13
2 0 -1 -2 -6 -7 -6 -6 -7 -8 -7 -7 -9 -10 -11 -10 -9 -10 -11 -11 -12 -12 -12 -11 -12 -12 -13 -13 -13 -13 -13 -13 -12 -12 -12 -12 -13 -14 -15 -14 -14 -13 -12 -12
-0 -1 -2 -3 -5 -5 -6 -7 -9 -10 -10 -8 -9 -9 -12 -11 -12 -12 -11 -13 -14 -13 -12 -12 -13 -13 -13 -13 -13 -13 -12 -13 -12 -11 -11 -13 -13 -13 -14 -13 -12 -12 -12 -11
1 -0 -2 -3 -5 -6 -9 -11 -11 -11 -9 -12 -11 -11 -11 -10 -10 -12 -13 -13 -14 -11 -14 -13 -12 -13 -14 -12 -12 -12 -13 -12 -12 -12 -12 -11 -11 -11 -11 -13 -13 -12 -12 -12
-1 -1 -3 -5 -6 -7 -8 -7 -7 -8 -9 -13 -11 -11 -10 -10 -10 -11 -12 -12 -11 -14 -15 -12 -13 -14 -13 -13 -12 -13 -13 -12 -12 -12 -12 -12 -12 -12 -12 -12 -12 -11 -11 -11
-1 -3 -4 -6 -6 -8 -7 -6 -5 -7 -14 -12 -10 -10 -9 -10 -10 -10 -9 -10 -13 -13 -14 -11 -13 -16 -14 -12 -12 -12 -12 -12 -12 -13 -13 -13 -13 -13 -12 -12 -11 -11 -10 -10
-1 -4 -4 -5 -5 -7 -7 -7 -5 -6 -7 -7 -8 -8 -9 -10 -9 -11 -10 -10 -10 -10 -10 -10 -17 -15 -14 -13 -12 -12 -12 -13 -13 -14 -13 -13 -13 -12 -12 -11 -11 -11 -11 -11
-2 -3 -5 -5 -5 -5 -6 -5 -5 -5 -6 -6 -7 -9 -9 -9 -9 -11 -10 -8 -8 -8 -9 -14 -14 -10 -12 -13 -12 -12 -12 -13 -13 -14 -14 -13 -13 -12 -12 -12 -12 -12 -12 -12
-4 -5 -4 -4 -5 -4 -5 -5 -3 -4 -7 -7 -8 -8 -7 -10 -9 -9 -9 -8 -8 -10 -13 -6 -6 -7 -8 -8 -10 -12 -13 -13 -13 -13 -12 -12 -12 -12 -12 -12 -12 -12 -12 -13

GFSNW_850_dewp_360.txt.gz
Dewpoint
-20 -26 -27 -24 -19 -22 -29 -30 -21 -28 -27 -18 -13 -13 -11 -10 -11 -9 -10 -9 -9 -8 -8 -8 -9 -9 -11 -11 -10 -7 -9 -6 -7 -8 -7 -9 -6 -5 -5 -1 -2 -3 -3 -3
-12 -22 -26 -25 -20 -20 -29 -28 -26 -26 -26 -19 -14 -12 -12 -11 -11 -11 -10 -9 -10 -10 -8 -7 -9 -10 -11 -11 -9 -7 -8 -7 -8 -9 -9 -11 -7 -6 -6 -4 -5 -4 -3 -4
-5 -14 -23 -25 -22 -19 -27 -25 -17 -21 -20 -11 -11 -11 -12 -12 -10 -10 -9 -9 -10 -10 -10 -10 -8 -10 -11 -11 -9 -9 -10 -7 -7 -6 -6 -6 -6 -6 -6 -6 -5 -6 -5 -6
-1 -7 -16 -23 -22 -19 -22 -24 -11 -16 -18 -14 -12 -9 -10 -12 -11 -11 -10 -11 -11 -8 -8 -10 -10 -10 -10 -11 -10 -11 -11 -9 -9 -10 -12 -9 -9 -7 -7 -6 -6 -6 -6 -6
1 -2 -8 -17 -21 -19 -19 -21 -15 -12 -8 -10 -13 -13 -11 -12 -11 -9 -13 -9 -11 -9 -8 -11 -9 -10 -9 -8 -10 -10 -11 -10 -10 -11 -14 -12 -9 -9 -9 -8 -8 -7 -7 -6
1 0 -3 -9 -16 -19 -18 -17 -16 -15 -9 -10 -12 -15 -11 -11 -9 -10 -10 -9 -8 -10 -11 -10 -11 -10 -10 -10 -9 -9 -9 -10 -9 -12 -14 -13 -10 -8 -7 -7 -8 -8 -6 -7
1 1 -0 -3 -9 -15 -15 -14 -16 -18 -8 -9 -12 -9 -10 -11 -10 -9 -10 -9 -9 -12 -11 -11 -10 -9 -9 -10 -10 -10 -9 -12 -11 -10 -14 -11 -11 -13 -10 -8 -7 -8 -7 -7
1 1 0 -0 -3 -8 -12 -11 -12 -15 -6 -12 -10 -9 -9 -9 -11 -8 -8 -11 -13 -12 -11 -11 -11 -15 -14 -13 -12 -11 -12 -12 -9 -9 -11 -13 -10 -10 -8 -8 -7 -8 -8 -8
1 0 0 -0 -1 -6 -8 -8 -8 -9 -10 -6 -18 -10 -10 -10 -11 -11 -13 -14 -12 -13 -11 -12 -10 -16 -11 -11 -13 -14 -14 -15 -10 -10 -10 -12 -10 -12 -11 -9 -7 -8 -8 -8
1 1 -0 -0 -1 -5 -6 -5 -6 -6 -8 -11 -15 -9 -11 -13 -11 -10 -12 -12 -13 -14 -12 -11 -12 -14 -11 -9 -10 -10 -11 -10 -12 -12 -9 -13 -13 -12 -10 -8 -7 -9 -8 -8
1 1 0 -0 -0 -1 -3 -2 -4 -4 -5 -6 -7 -11 -12 -12 -12 -9 -14 -11 -12 -10 -10 -10 -11 -10 -11 -11 -12 -10 -10 -9 -15 -13 -10 -13 -14 -11 -9 -9 -11 -10 -10 -9
3 3 1 -0 -0 -0 -1 -2 -3 -4 -4 -5 -5 -5 -6 -11 -9 -10 -10 -11 -12 -10 -9 -11 -11 -9 -12 -11 -11 -13 -9 -10 -10 -11 -16 -14 -12 -11 -13 -12 -11 -12 -13 -12
4 3 2 0 -0 -0 -1 -2 -3 -4 -4 -5 -7 -11 -12 -10 -9 -8 -8 -10 -11 -11 -11 -10 -10 -8 -12 -9 -11 -11 -12 -13 -9 -10 -11 -12 -12 -13 -13 -12 -11 -11 -12 -12
3 2 2 2 -0 -0 -0 -2 -3 -4 -4 -5 -7 -12 -12 -10 -9 -7 -6 -8 -10 -9 -9 -9 -9 -9 -12 -11 -11 -11 -12 -11 -9 -9 -11 -12 -15 -17 -19 -14 -12 -11 -11 -11
3 2 2 2 1 -0 -0 -0 -3 -4 -4 -5 -7 -8 -9 -9 -7 -7 -6 -6 -7 -8 -9 -9 -9 -11 -11 -11 -12 -10 -12 -10 -9 -9 -12 -16 -17 -15 -16 -16 -17 -15 -10 -10
3 3 3 2 1 -0 -1 -3 -5 -8 -6 -7 -6 -10 -9 -8 -7 -7 -7 -7 -7 -8 -9 -9 -10 -11 -9 -9 -9 -11 -13 -12 -14 -13 -19 -16 -13 -12 -12 -14 -17 -19 -15 -12
4 3 3 1 1 0 -0 -1 -2 -4 -5 -7 -6 -8 -10 -8 -8 -8 -8 -8 -8 -9 -9 -10 -10 -9 -8 -9 -8 -12 -14 -14 -13 -13 -13 -12 -14 -13 -19 -18 -18 -18 -18 -17
4 3 2 0 0 -0 -2 -2 -4 -4 -5 -6 -7 -8 -12 -9 -8 -8 -9 -9 -9 -9 -9 -10 -10 -10 -10 -9 -12 -13 -14 -14 -14 -14 -14 -14 -14 -14 -14 -15 -17 -15 -15 -15
4 2 2 -1 -1 -2 -3 -4 -5 -6 -5 -6 -9 -8 -8 -11 -9 -9 -10 -10 -9 -11 -10 -10 -10 -10 -9 -11 -12 -13 -14 -13 -13 -13 -13 -13 -12 -13 -12 -12 -15 -16 -15 -14
2 1 1 -1 -3 -3 -5 -6 -7 -7 -7 -7 -8 -10 -9 -11 -10 -10 -10 -11 -10 -9 -11 -11 -10 -10 -12 -13 -14 -14 -13 -13 -13 -13 -13 -13 -13 -13 -13 -13 -14 -14 -14 -13
0 -0 -0 -1 -3 -4 -5 -7 -8 -9 -9 -8 -9 -9 -9 -11 -9 -9 -11 -10 -12 -9 -11 -10 -10 -10 -13 -14 -13 -13 -14 -14 -13 -13 -12 -11 -12 -13 -14 -13 -13 -13 -12 -12
2 2 -1 -3 -4 -6 -7 -7 -10 -10 -7 -10 -9 -10 -10 -10 -11 -11 -12 -10 -12 -9 -13 -11 -10 -13 -15 -13 -12 -12 -12 -13 -12 -12 -12 -12 -12 -11 -11 -11 -11 -12 -13 -13
-0 -0 -2 -4 -5 -5 -5 -4 -7 -7 -8 -10 -11 -10 -10 -10 -10 -10 -10 -9 -9 -13 -11 -11 -12 -15 -15 -13 -12 -12 -13 -13 -12 -12 -13 -13 -13 -13 -12 -12 -12 -12 -11 -12
0 -2 -3 -4 -4 -6 -5 -5 -5 -8 -6 -9 -8 -10 -9 -10 -10 -9 -8 -9 -11 -9 -10 -10 -13 -16 -16 -13 -13 -13 -12 -12 -12 -14 -14 -14 -14 -13 -13 -13 -12 -12 -11 -11
-0 -3 -2 -3 -4 -5 -7 -7 -6 -5 -6 -8 -8 -8 -8 -9 -8 -10 -9 -10 -9 -8 -8 -10 -15 -17 -16 -13 -12 -12 -12 -12 -13 -14 -14 -14 -14 -14 -14 -13 -12 -12 -12 -12
-1 -2 -4 -4 -5 -5 -5 -6 -6 -5 -6 -6 -7 -8 -8 -8 -8 -9 -9 -7 -7 -8 -8 -9 -10 -10 -13 -7 -8 -12 -8 -8 -13 -14 -14 -13 -13 -13 -13 -13 -12 -12 -12 -12
-3 -4 -2 -2 -3 -3 -3 -5 -4 -4 -6 -6 -7 -7 -6 -9 -8 -9 -8 -8 -8 -6 -6 -6 -7 -9 -6 -7 -8 -8 -8 -9 -10 -13 -12 -12 -12 -12 -12 -12 -12 -12 -12 -13

GFSNW_850_dewp_363.txt.gz
Dewpoint
-4 -8 -17 -20 -17 -16 -25 -28 -19 -30 -26 -18 -19 -16 -12 -11 -13 -10 -11 -10 -11 -9 -10 -10 -10 -11 -12 -12 -12 -8 -10 -6 -5 -8 -9 -8 -6 -5 -4 -1 -1 -3 -1 -2
-1 -4 -9 -16 -17 -16 -24 -17 -19 -29 -22 -18 -16 -14 -14 -12 -13 -13 -12 -11 -11 -11 -8 -7 -9 -11 -13 -12 -10 -7 -8 -8 -6 -6 -8 -10 -7 -6 -5 -4 -3 -4 -1 -2
0 -0 -4 -10 -15 -17 -23 -13 -13 -15 -16 -13 -15 -13 -16 -15 -11 -11 -11 -10 -12 -11 -11 -12 -8 -11 -13 -12 -10 -10 -10 -9 -7 -6 -6 -7 -6 -7 -6 -6 -4 -4 -6 -5
1 0 -0 -4 -10 -16 -17 -15 -10 -17 -13 -15 -15 -11 -12 -15 -13 -11 -11 -12 -13 -9 -7 -10 -12 -12 -11 -12 -10 -11 -10 -9 -10 -12 -12 -11 -10 -7 -7 -6 -6 -5 -5 -5
1 1 0 -0 -4 -10 -15 -7 -8 -8 -10 -11 -14 -13 -9 -15 -13 -11 -12 -10 -12 -8 -8 -10 -9 -9 -9 -8 -9 -10 -11 -8 -11 -11 -16 -14 -10 -11 -8 -7 -7 -8 -7 -5
1 1 0 0 -1 -4 -13 -13 -14 -9 -6 -10 -13 -13 -10 -10 -11 -11 -11 -10 -8 -7 -9 -11 -11 -11 -11 -11 -9 -9 -8 -9 -9 -12 -15 -13 -9 -9 -8 -7 -8 -7 -5 -7
1 0 -0 -0 0 -0 -6 -8 -11 -7 -2 -9 -10 -9 -11 -13 -12 -8 -9 -9 -8 -9 -11 -11 -10 -10 -10 -10 -10 -10 -8 -9 -9 -9 -14 -12 -11 -14 -11 -8 -8 -8 -7 -7
1 1 0 -0 -0 -0 -1 -4 -6 -10 -1 -8 -9 -10 -11 -9 -8 -8 -8 -9 -10 -12 -11 -9 -9 -11 -13 -13 -13 -10 -10 -9 -9 -10 -11 -14 -11 -11 -9 -7 -8 -8 -7 -8
1 1 1 -0 -0 -1 -1 -1 -3 -5 -4 -1 -11 -11 -9 -9 -10 -9 -12 -13 -14 -14 -10 -11 -9 -13 -13 -11 -14 -14 -12 -13 -7 -11 -9 -12 -9 -11 -11 -10 -7 -9 -8 -8
3 2 2 1 -0 -0 -1 -1 -2 -3 -3 -4 -11 -8 -8 -11 -9 -8 -9 -10 -10 -14 -12 -10 -12 -13 -12 -8 -9 -10 -11 -10 -10 -14 -8 -13 -9 -12 -10 -7 -7 -9 -9 -8
3 3 3 2 0 -0 -1 -1 -1 -2 -3 -2 -4 -8 -11 -10 -9 -7 -8 -8 -9 -9 -8 -9 -11 -11 -10 -11 -12 -10 -10 -9 -12 -13 -10 -11 -10 -11 -9 -7 -8 -9 -9 -9
4 3 3 2 1 0 -0 -1 -1 -2 -3 -3 -4 -4 -5 -6 -9 -9 -10 -7 -10 -8 -7 -8 -8 -7 -10 -11 -10 -14 -9 -10 -7 -9 -12 -12 -11 -11 -11 -14 -13 -9 -9 -10
4 4 3 2 1 1 0 -1 -1 -2 -3 -3 -4 -8 -11 -11 -8 -7 -6 -7 -10 -11 -11 -7 -7 -7 -11 -8 -9 -12 -13 -12 -9 -10 -11 -11 -12 -12 -13 -14 -14 -10 -10 -10
5 5 4 3 2 2 1 -0 -1 -2 -3 -4 -3 -6 -10 -10 -10 -9 -7 -8 -9 -10 -10 -7 -7 -7 -12 -9 -10 -11 -12 -11 -10 -9 -10 -10 -11 -13 -14 -17 -16 -13 -11 -10
5 5 4 3 2 2 1 0 -1 -3 -3 -3 -4 -5 -8 -9 -9 -7 -7 -6 -6 -7 -7 -7 -7 -10 -10 -10 -10 -9 -11 -9 -8 -9 -10 -12 -14 -18 -18 -17 -16 -16 -17 -13
5 5 4 4 3 2 1 -1 -3 -5 -4 -4 -3 -6 -9 -9 -8 -7 -7 -7 -7 -7 -7 -8 -9 -9 -9 -7 -8 -10 -11 -11 -11 -9 -18 -17 -15 -14 -14 -13 -14 -17 -19 -16
5 5 4 4 3 1 -0 -0 -1 -2 -3 -5 -4 -4 -9 -9 -8 -8 -8 -8 -8 -7 -8 -9 -9 -9 -8 -8 -7 -11 -10 -10 -11 -13 -14 -14 -14 -14 -14 -17 -17 -17 -17 -16
5 4 3 3 1 -0 -1 -1 -2 -4 -4 -5 -5 -5 -10 -10 -8 -8 -9 -8 -8 -8 -9 -8 -10 -9 -9 -8 -10 -11 -12 -14 -13 -12 -13 -13 -13 -15 -15 -17 -14 -16 -16 -15
4 4 1 -0 -0 -1 -2 -3 -5 -5 -4 -5 -6 -5 -4 -11 -9 -9 -9 -9 -9 -9 -10 -10 -10 -10 -8 -9 -10 -10 -11 -12 -14 -14 -13 -14 -13 -14 -14 -13 -13 -12 -14 -15
4 1 1 -0 -2 -2 -2 -5 -6 -7 -6 -6 -7 -7 -7 -11 -9 -8 -9 -9 -9 -8 -9 -10 -10 -9 -11 -11 -11 -12 -13 -14 -13 -13 -13 -13 -13 -13 -13 -13 -13 -13 -13 -14
0 1 1 -1 -3 -3 -4 -6 -7 -7 -7 -7 -7 -7 -7 -10 -8 -8 -9 -8 -9 -7 -9 -9 -8 -8 -12 -14 -14 -13 -13 -12 -14 -13 -13 -13 -12 -12 -12 -13 -13 -13 -13 -13
3 2 1 -1 -3 -5 -6 -5 -8 -8 -6 -7 -8 -8 -8 -9 -12 -9 -10 -8 -10 -7 -12 -10 -9 -12 -13 -14 -13 -12 -14 -13 -14 -14 -13 -13 -12 -12 -12 -12 -12 -12 -12 -12
2 1 -0 -3 -4 -4 -3 -2 -4 -5 -8 -8 -10 -9 -9 -9 -10 -8 -9 -8 -7 -12 -10 -9 -11 -13 -16 -15 -13 -12 -12 -13 -13 -13 -12 -13 -14 -14 -14 -13 -13 -13 -13 -13
2 -0 -2 -2 -1 -3 -2 -3 -3 -6 -6 -8 -8 -9 -8 -8 -9 -8 -7 -7 -9 -8 -8 -9 -12 -12 -16 -16 -14 -13 -13 -13 -12 -12 -14 -14 -14 -14 -14 -14 -14 -14 -14 -13
1 -1 -0 -1 -2 -3 -5 -5 -6 -4 -4 -7 -7 -7 -8 -8 -7 -8 -8 -8 -8 -8 -7 -9 -7 -6 -13 -15 -14 -12 -12 -12 -12 -11 -13 -14 -14 -14 -14 -14 -13 -13 -13 -13
1 -1 -2 -2 -3 -2 -4 -5 -4 -3 -5 -6 -7 -7 -7 -7 -7 -8 -8 -6 -6 -7 -7 -6 -5 -5 -6 -8 -13 -8 -10 -11 -8 -8 -10 -12 -13 -13 -13 -12 -12 -12 -13 -13
-1 -2 -1 -1 -1 -1 -2 -2 -3 -4 -6 -5 -6 -6 -5 -6 -7 -7 -7 -7 -7 -5 -6 -6 -6 -6 -6 -10 -9 -7 -8 -8 -8 -8 -9 -12 -13 -12 -11 -11 -12 -12 -13 -13

GFSNW_850_dewp_369.txt.gz
Dewpoint
-1 -2 -4 -4 -3 -4 -9 -19 -15 -20 -21 -17 -16 -16 -13 -12 -12 -11 -11 -11 -10 -10 -9 -8 -9 -8 -10 -11 -9 -7 -9 -11 -8 -11 -12 -10 -11 -10 -11 -8 -6 -5 -4 -8
-0 -1 -1 -5 -3 -3 -8 -16 -13 -15 -16 -17 -13 -14 -13 -13 -13 -13 -12 -12 -11 -11 -9 -11 -9 -9 -12 -12 -9 -9 -10 -10 -9 -12 -12 -11 -10 -10 -12 -13 -9 -9 -8 -8
0 0 -0 -2 -5 -2 -7 -8 -8 -13 -15 -15 -15 -15 -13 -13 -12 -12 -12 -11 -11 -11 -9 -11 -12 -11 -12 -12 -9 -9 -10 -11 -11 -9 -11 -10 -11 -9 -11 -12 -10 -9 -10 -8
0 1 1 -0 -2 -4 -5 -5 -8 -10 -7 -11 -14 -12 -12 -13 -13 -11 -11 -11 -12 -11 -11 -11 -10 -10 -11 -10 -10 -10 -12 -10 -11 -11 -11 -11 -10 -9 -9 -10 -11 -10 -12 -9
3 1 2 1 -1 -3 -2 -5 -6 -9 -7 -8 -12 -11 -9 -14 -12 -12 -9 -10 -11 -11 -12 -14 -16 -12 -12 -11 -11 -11 -11 -12 -9 -9 -11 -12 -12 -12 -10 -7 -8 -10 -10 -9
5 3 2 2 0 -2 -1 -2 -3 -10 -5 -9 -8 -7 -9 -11 -12 -14 -13 -11 -10 -10 -10 -11 -11 -11 -10 -11 -12 -12 -13 -11 -11 -12 -12 -12 -11 -12 -10 -12 -12 -10 -9 -11
6 5 3 3 2 -1 -1 -1 -1 -4 -2 -7 -4 -9 -10 -11 -12 -12 -10 -11 -12 -13 -11 -12 -10 -10 -10 -10 -10 -10 -13 -15 -14 -9 -12 -16 -14 -12 -12 -11 -12 -11 -10 -11
5 6 4 3 3 2 -0 -1 -0 -1 -4 -2 -4 -7 -9 -10 -10 -8 -9 -10 -10 -10 -13 -9 -10 -9 -11 -10 -10 -11 -12 -16 -12 -12 -11 -14 -14 -12 -11 -9 -13 -12 -10 -12
5 5 4 4 3 3 2 0 -0 -1 -2 -3 -2 -8 -9 -9 -9 -8 -9 -11 -12 -14 -9 -8 -9 -8 -12 -11 -11 -11 -13 -18 -14 -13 -11 -14 -14 -11 -10 -12 -9 -10 -9 -10
6 6 6 5 4 4 3 2 1 -0 -1 -1 -2 -5 -5 -7 -9 -9 -8 -10 -12 -14 -8 -7 -8 -9 -12 -12 -10 -11 -10 -12 -11 -10 -11 -12 -13 -11 -10 -13 -15 -9 -9 -10
6 5 5 5 5 5 4 2 1 1 -0 -0 -1 -2 -3 -6 -9 -9 -8 -10 -9 -9 -9 -9 -8 -10 -10 -11 -12 -12 -13 -11 -10 -13 -14 -14 -12 -10 -14 -14 -10 -11 -12 -12
6 6 5 5 5 5 4 3 2 1 -1 -0 -1 -2 -2 -3 -4 -6 -8 -9 -12 -9 -10 -11 -12 -9 -11 -12 -10 -14 -10 -11 -11 -11 -12 -14 -12 -17 -17 -13 -19 -16 -14 -15
6 6 6 5 5 5 5 3 2 1 -1 -1 -2 -3 -3 -4 -5 -5 -7 -6 -7 -10 -10 -7 -12 -10 -9 -10 -10 -11 -12 -11 -11 -13 -12 -12 -13 -14 -15 -14 -15 -15 -18 -18
5 6 6 6 5 5 4 3 2 1 -0 -3 -2 -2 -3 -4 -5 -8 -7 -8 -8 -10 -11 -11 -13 -8 -10 -10 -10 -10 -11 -13 -14 -12 -12 -13 -15 -15 -14 -14 -15 -15 -20 -19
6 6 6 6 5 5 4 3 3 1 -1 -1 -1 -2 -4 -7 -7 -7 -8 -7 -7 -7 -7 -10 -10 -9 -10 -11 -12 -11 -11 -12 -10 -10 -13 -12 -13 -17 -19 -14 -14 -16 -19 -18
6 6 6 6 4 4 2 2 1 -1 -2 -2 -3 -4 -5 -7 -8 -8 -8 -7 -7 -7 -7 -7 -7 -8 -10 -12 -10 -11 -12 -13 -14 -13 -12 -13 -15 -15 -18 -18 -17 -16 -15 -15
7 6 6 4 3 2 1 1 1 -0 -2 -3 -4 -5 -6 -9 -9 -8 -8 -8 -7 -7 -8 -7 -8 -8 -9 -14 -9 -12 -11 -11 -11 -11 -11 -11 -12 -12 -17 -17 -15 -15 -15 -15
6 6 5 2 0 -0 -0 0 -0 -1 -2 -3 -7 -7 -6 -8 -8 -8 -8 -8 -8 -8 -8 -8 -8 -9 -9 -9 -11 -11 -12 -12 -11 -11 -11 -12 -11 -12 -14 -14 -14 -15 -16 -17
6 5 2 0 -1 -1 -1 -1 -2 -3 -2 -4 -5 -8 -7 -9 -8 -8 -9 -9 -10 -9 -10 -9 -9 -11 -10 -11 -12 -12 -12 -12 -11 -11 -12 -14 -13 -12 -12 -13 -14 -14 -14 -13
5 3 0 -0 -1 -2 -2 -3 -5 -6 -5 -5 -7 -7 -7 -8 -9 -8 -8 -9 -11 -11 -11 -10 -12 -11 -12 -13 -12 -13 -13 -13 -11 -10 -11 -12 -14 -14 -14 -13 -12 -12 -12 -12
2 1 0 -2 -2 -2 -3 -6 -6 -7 -8 -7 -7 -7 -10 -7 -8 -8 -7 -10 -12 -11 -11 -12 -12 -10 -11 -12 -14 -15 -15 -13 -13 -14 -12 -11 -12 -13 -13 -12 -12 -12 -13 -12
2 1 -1 -4 -3 -4 -5 -5 -7 -7 -8 -8 -7 -7 -7 -7 -7 -8 -9 -11 -11 -10 -11 -12 -12 -12 -11 -5 -6 -10 -14 -14 -14 -13 -13 -12 -12 -13 -12 -12 -12 -12 -13 -14
1 0 -0 -3 -4 -3 -3 -2 -3 -5 -7 -6 -8 -8 -8 -8 -8 -8 -10 -10 -11 -10 -11 -11 -12 -13 -6 -6 -6 -6 -6 -6 -9 -12 -13 -13 -13 -12 -13 -14 -14 -14 -15 -15
1 -0 -1 -2 -2 -4 -3 -2 -1 -2 -6 -7 -7 -8 -8 -8 -9 -9 -10 -10 -10 -10 -10 -11 -11 -6 -6 -7 -7 -7 -8 -8 -7 -8 -12 -12 -12 -13 -14 -10 -9 -14 -14 -13
1 -0 1 -1 -2 -3 -3 -1 -1 -3 -6 -6 -7 -8 -8 -9 -9 -9 -9 -9 -10 -10 -9 -7 -7 -9 -9 -9 -8 -8 -9 -9 -9 -8 -10 -9 -9 -9 -8 -9 -10 -13 -13 -12
1 -0 -0 -1 -1 -2 -2 -1 -2 -3 -5 -5 -6 -8 -9 -10 -10 -9 -9 -10 -8 -7 -9 -11 -12 -11 -11 -11 -11 -11 -11 -10 -10 -9 -9 -9 -9 -9 -10 -10 -10 -11 -12 -11
-1 -1 -0 -0 -1 -1 -1 -0 -1 -3 -5 -5 -5 -6 -6 -8 -8 -7 -9 -8 -12 -13 -13 -14 -13 -13 -14 -13 -13 -13 -12 -12 -11 -11 -11 -11 -11 -11 -11 -11 -11 -12 -11 -12

GFSNW_850_dewp_372.txt.gz
Dewpoint
2 1 0 -2 -9 -6 -8 -14 -12 -12 -15 -16 -16 -17 -13 -13 -12 -11 -11 -12 -10 -10 -10 -9 -9 -9 -10 -11 -9 -8 -10 -11 -9 -10 -14 -12 -14 -11 -13 -9 -8 -10 -7 -8
2 2 2 -1 -6 -8 -6 -12 -10 -11 -10 -13 -14 -14 -13 -13 -13 -12 -12 -11 -10 -12 -10 -11 -9 -10 -12 -11 -9 -9 -10 -11 -14 -15 -15 -13 -12 -13 -14 -15 -12 -11 -10 -9
4 3 3 1 -3 -8 -6 -7 -5 -8 -11 -16 -16 -15 -13 -14 -13 -13 -12 -12 -11 -11 -10 -10 -11 -11 -12 -11 -9 -9 -9 -12 -14 -15 -16 -12 -12 -11 -13 -13 -11 -11 -10 -10
5 5 3 2 1 -3 -5 -4 -8 -7 -7 -8 -13 -12 -12 -13 -14 -11 -11 -12 -11 -12 -12 -12 -10 -11 -11 -11 -10 -11 -13 -12 -11 -12 -12 -11 -10 -11 -11 -12 -13 -10 -12 -9
5 4 4 3 3 -0 -1 -3 -3 -7 -8 -6 -11 -11 -10 -12 -14 -12 -11 -10 -12 -11 -12 -14 -16 -14 -13 -12 -12 -11 -12 -15 -10 -10 -11 -12 -11 -12 -10 -9 -10 -11 -12 -10
4 4 4 3 3 2 -0 -1 -2 -5 -5 -7 -7 -7 -9 -11 -13 -13 -14 -11 -10 -11 -10 -11 -12 -13 -12 -13 -12 -12 -13 -11 -11 -13 -12 -12 -13 -13 -11 -13 -13 -11 -9 -12
5 4 4 4 3 3 2 1 -0 -2 -2 -6 -4 -8 -9 -9 -11 -12 -11 -11 -12 -12 -11 -11 -11 -10 -10 -10 -10 -11 -14 -16 -15 -9 -13 -18 -17 -13 -13 -12 -14 -12 -11 -12
5 5 5 5 4 4 3 2 1 -0 -4 -3 -3 -5 -5 -8 -9 -9 -8 -9 -10 -10 -12 -10 -11 -9 -10 -10 -10 -12 -13 -16 -13 -12 -11 -13 -15 -12 -11 -12 -17 -13 -11 -12
5 6 5 4 5 5 4 3 2 1 -1 -3 -2 -3 -7 -9 -10 -10 -9 -10 -11 -13 -9 -8 -10 -8 -12 -13 -11 -12 -14 -17 -14 -14 -10 -14 -16 -12 -11 -14 -13 -13 -11 -12
5 6 5 5 5 5 5 4 3 2 1 -0 -1 -2 -5 -5 -9 -8 -9 -10 -12 -13 -9 -7 -7 -9 -12 -11 -11 -11 -11 -12 -12 -12 -12 -11 -14 -11 -11 -17 -17 -12 -11 -12
5 6 5 5 5 5 5 4 3 2 1 2 -0 -1 -2 -4 -7 -6 -8 -9 -9 -10 -10 -9 -9 -10 -11 -11 -12 -12 -11 -11 -10 -13 -14 -11 -12 -10 -17 -16 -12 -15 -15 -15
5 6 6 6 6 6 5 4 3 1 1 2 1 -0 -1 -2 -2 -4 -7 -9 -12 -12 -11 -12 -13 -9 -13 -12 -10 -14 -10 -11 -12 -11 -11 -15 -12 -16 -18 -16 -17 -16 -17 -17
5 5 5 5 5 6 5 4 4 2 0 1 -0 -2 -2 -2 -2 -3 -5 -7 -7 -9 -10 -9 -13 -10 -9 -10 -10 -12 -12 -12 -12 -13 -12 -13 -14 -14 -14 -14 -15 -16 -15 -15
5 5 6 6 6 6 5 4 3 2 1 -1 -2 -2 -2 -3 -4 -5 -5 -5 -7 -10 -12 -11 -14 -10 -11 -9 -11 -10 -11 -13 -14 -13 -13 -14 -15 -15 -16 -16 -14 -13 -13 -14
4 5 7 6 6 5 3 2 2 2 1 -1 -1 -2 -3 -5 -5 -6 -7 -6 -7 -7 -7 -9 -10 -9 -9 -11 -12 -11 -12 -12 -11 -10 -13 -13 -13 -13 -15 -18 -18 -14 -14 -15
5 5 5 6 6 5 3 1 2 1 -0 -1 -2 -4 -5 -5 -7 -8 -8 -7 -7 -7 -7 -7 -7 -8 -9 -11 -10 -12 -12 -12 -13 -14 -13 -12 -12 -12 -12 -12 -15 -17 -16 -17
6 6 5 6 6 4 2 2 1 0 -1 -1 -3 -5 -5 -8 -8 -8 -7 -8 -7 -7 -7 -8 -8 -7 -8 -15 -11 -12 -11 -12 -12 -11 -10 -10 -11 -12 -11 -12 -15 -15 -15 -15
6 6 6 4 2 1 0 0 -0 -1 -2 -2 -5 -6 -6 -7 -8 -8 -8 -8 -8 -8 -8 -8 -8 -9 -9 -9 -11 -12 -12 -12 -12 -12 -11 -11 -11 -13 -14 -12 -13 -14 -14 -14
6 6 5 2 0 -0 -1 -1 -1 -2 -1 -4 -6 -6 -4 -7 -8 -8 -8 -9 -10 -9 -10 -10 -10 -10 -10 -11 -12 -12 -13 -13 -13 -13 -13 -12 -11 -12 -13 -14 -13 -13 -14 -13
6 6 2 0 -0 -1 -2 -3 -4 -5 -5 -5 -6 -6 -7 -8 -9 -9 -9 -9 -13 -13 -12 -10 -10 -10 -12 -12 -10 -10 -13 -14 -12 -12 -13 -13 -13 -12 -12 -14 -13 -13 -13 -12
4 3 1 -2 -3 -3 -3 -5 -6 -7 -7 -7 -7 -7 -9 -7 -10 -9 -8 -12 -12 -12 -12 -10 -11 -11 -12 -6 -6 -6 -6 -6 -7 -8 -9 -12 -13 -13 -11 -12 -13 -12 -12 -13
4 3 -1 -5 -4 -5 -5 -5 -7 -7 -5 -7 -7 -7 -7 -7 -7 -8 -9 -11 -11 -10 -11 -11 -11 -13 -9 -7 -7 -8 -7 -7 -7 -8 -8 -8 -10 -12 -12 -13 -13 -12 -12 -13
2 1 -1 -3 -5 -4 -4 -3 -4 -5 -6 -7 -8 -8 -7 -8 -8 -8 -10 -11 -10 -11 -11 -10 -12 -11 -9 -9 -9 -8 -9 -9 -10 -11 -10 -9 -8 -11 -12 -12 -12 -13 -13 -11
2 -0 -2 -3 -3 -3 -3 -2 -3 -4 -4 -6 -7 -8 -8 -8 -9 -9 -9 -9 -10 -9 -9 -10 -10 -11 -11 -11 -11 -11 -11 -12 -12 -12 -11 -10 -9 -10 -10 -9 -10 -11 -9 -10
1 -0 0 -2 -2 -3 -3 -3 -1 -3 -4 -6 -7 -8 -8 -9 -8 -9 -9 -9 -9 -9 -9 -10 -13 -13 -13 -14 -13 -13 -14 -14 -13 -13 -12 -11 -11 -11 -11 -11 -11 -11 -11 -11
1 0 -0 -0 -1 -2 -2 -2 -3 -3 -5 -5 -6 -8 -8 -8 -9 -9 -9 -8 -8 -10 -12 -14 -15 -15 -15 -15 -15 -15 -15 -15 -14 -14 -14 -13 -13 -13 -13 -12 -12 -12 -13 -12
-0 -1 0 -0 -1 -1 -2 -1 -1 -3 -5 -5 -6 -6 -5 -8 -8 -8 -9 -10 -14 -15 -16 -16 -16 -16 -16 -16 -16 -16 -16 -16 -16 -15 -15 -15 -15 -14 -14 -14 -14 -14 -14 -14

GFSNW_850_dewp_375.txt.gz
Dewpoint
4 3 2 1 -2 -8 -8 -10 -8 -8 -12 -14 -17 -17 -14 -13 -12 -12 -11 -12 -11 -10 -10 -9 -9 -10 -11 -11 -10 -8 -10 -12 -8 -14 -15 -13 -15 -13 -14 -9 -9 -11 -9 -7
4 4 3 2 -1 -5 -6 -9 -8 -7 -8 -8 -15 -15 -14 -13 -12 -12 -11 -10 -10 -11 -10 -11 -10 -10 -11 -11 -9 -9 -11 -12 -14 -16 -15 -14 -13 -14 -16 -15 -12 -13 -10 -9
4 3 3 2 1 -1 -7 -6 -4 -6 -7 -14 -16 -14 -13 -15 -13 -14 -13 -12 -11 -11 -10 -10 -11 -11 -12 -11 -8 -8 -9 -13 -15 -15 -16 -13 -13 -12 -14 -14 -13 -13 -10 -10
4 3 3 2 1 1 -3 -3 -7 -6 -6 -6 -12 -12 -12 -13 -14 -11 -12 -12 -11 -11 -13 -13 -10 -11 -12 -12 -10 -11 -13 -14 -11 -12 -13 -12 -11 -11 -12 -13 -14 -10 -13 -10
4 4 4 3 3 2 2 -1 -2 -5 -8 -5 -10 -11 -9 -11 -13 -13 -11 -10 -13 -12 -13 -15 -16 -15 -14 -13 -12 -11 -12 -14 -11 -11 -12 -11 -11 -12 -11 -10 -11 -11 -13 -10
5 5 4 4 3 3 3 2 0 -2 -4 -6 -7 -7 -9 -9 -12 -10 -14 -11 -11 -11 -11 -12 -11 -12 -14 -13 -12 -12 -14 -12 -12 -14 -12 -12 -15 -14 -12 -14 -13 -13 -11 -13
5 5 5 4 4 3 3 3 2 -0 -2 -5 -4 -7 -8 -7 -9 -10 -12 -11 -12 -11 -12 -10 -10 -10 -10 -10 -10 -11 -15 -17 -15 -10 -13 -11 -17 -14 -14 -13 -14 -13 -12 -14
5 5 5 4 4 4 5 4 3 2 -2 -3 -3 -3 -4 -5 -8 -8 -8 -9 -9 -9 -12 -11 -11 -10 -10 -10 -11 -12 -14 -16 -14 -12 -12 -13 -16 -14 -12 -13 -17 -14 -12 -13
5 5 5 5 5 5 5 5 4 3 1 -1 -2 -2 -6 -7 -10 -9 -8 -9 -10 -12 -9 -9 -11 -9 -11 -12 -11 -12 -13 -16 -13 -14 -11 -12 -14 -14 -12 -15 -14 -15 -13 -14
5 5 4 6 5 5 5 5 5 3 2 2 0 -1 -3 -4 -8 -8 -8 -9 -11 -14 -9 -8 -7 -9 -12 -11 -13 -12 -10 -11 -11 -12 -12 -12 -14 -12 -12 -17 -14 -15 -16 -17
5 5 4 5 5 5 6 5 5 3 2 3 2 0 -0 -2 -5 -4 -6 -7 -9 -10 -11 -9 -10 -11 -10 -11 -12 -12 -11 -12 -11 -14 -12 -10 -13 -10 -16 -14 -15 -14 -16 -17
4 5 5 4 5 6 5 5 4 3 2 3 3 2 1 -1 -1 -3 -5 -7 -12 -13 -10 -12 -13 -9 -12 -12 -10 -14 -10 -11 -10 -11 -11 -14 -12 -14 -16 -16 -16 -16 -17 -19
4 5 5 5 5 6 5 5 4 2 0 2 2 2 -0 -1 -2 -2 -3 -6 -7 -9 -9 -10 -13 -12 -9 -9 -10 -12 -12 -13 -11 -12 -12 -13 -15 -15 -14 -14 -14 -14 -13 -14
5 5 4 4 5 6 5 5 4 3 2 -1 0 0 -2 -1 -2 -2 -3 -4 -6 -8 -12 -12 -15 -11 -11 -10 -10 -11 -11 -13 -12 -12 -13 -14 -14 -14 -13 -13 -14 -16 -17 -14
6 7 6 4 5 5 5 4 4 3 1 0 -0 -0 -0 -2 -3 -3 -4 -5 -5 -7 -7 -9 -9 -10 -10 -11 -12 -10 -12 -11 -10 -9 -13 -13 -13 -13 -13 -12 -12 -12 -13 -16
6 6 7 5 6 6 4 1 3 2 -1 -1 -1 -2 -4 -5 -5 -6 -7 -7 -6 -7 -7 -8 -8 -9 -10 -11 -9 -12 -12 -11 -12 -13 -12 -11 -11 -12 -12 -13 -13 -13 -13 -15
6 6 6 6 6 6 4 3 2 2 -0 -1 -2 -2 -5 -6 -7 -8 -8 -8 -7 -7 -8 -8 -8 -7 -7 -12 -8 -12 -11 -12 -13 -13 -12 -12 -11 -12 -12 -11 -12 -14 -13 -14
7 7 7 6 5 3 2 2 1 0 -0 -1 -3 -3 -6 -7 -8 -8 -8 -8 -8 -8 -8 -8 -9 -9 -9 -9 -11 -11 -12 -13 -13 -12 -12 -12 -13 -13 -13 -12 -12 -13 -14 -13
7 6 6 6 2 1 0 1 -0 -1 -1 -3 -5 -3 -1 -8 -8 -8 -9 -9 -10 -10 -9 -10 -9 -10 -9 -10 -11 -11 -7 -11 -13 -12 -11 -9 -9 -9 -11 -12 -13 -12 -14 -13
7 6 4 2 1 0 -1 -2 -3 -4 -4 -4 -6 -6 -5 -7 -9 -10 -10 -9 -13 -12 -11 -10 -10 -10 -11 -12 -8 -7 -7 -7 -8 -8 -8 -8 -8 -8 -8 -9 -11 -12 -12 -12
5 5 3 -1 -2 -2 -2 -4 -5 -6 -6 -6 -7 -6 -8 -7 -7 -8 -9 -10 -12 -12 -12 -11 -11 -11 -12 -7 -8 -8 -8 -9 -9 -10 -9 -9 -9 -9 -9 -9 -10 -12 -12 -12
5 4 0 -4 -3 -4 -5 -5 -6 -7 -5 -7 -8 -7 -6 -8 -7 -7 -10 -9 -11 -10 -11 -12 -11 -12 -10 -10 -11 -11 -10 -10 -10 -10 -11 -11 -11 -10 -9 -9 -11 -12 -11 -11
3 3 0 -2 -5 -4 -4 -3 -4 -5 -6 -7 -8 -8 -7 -8 -7 -9 -9 -9 -10 -11 -12 -10 -12 -11 -12 -12 -13 -13 -13 -12 -12 -13 -13 -13 -13 -12 -11 -11 -11 -11 -10 -10
3 0 -3 -3 -3 -4 -3 -3 -2 -5 -5 -7 -7 -9 -8 -8 -8 -8 -7 -9 -10 -10 -10 -10 -13 -13 -13 -15 -15 -15 -15 -15 -15 -15 -15 -15 -14 -14 -13 -13 -12 -12 -12 -12
2 1 1 -2 -3 -3 -3 -3 -3 -4 -5 -6 -7 -8 -8 -8 -8 -8 -8 -9 -8 -9 -9 -13 -14 -15 -15 -16 -16 -16 -16 -16 -16 -16 -16 -16 -16 -16 -15 -15 -14 -14 -14 -14
2 1 -0 -1 -2 -1 -2 -2 -3 -3 -6 -4 -5 -8 -7 -7 -7 -8 -8 -6 -7 -11 -14 -16 -16 -16 -17 -17 -17 -17 -17 -17 -17 -17 -17 -17 -17 -17 -17 -17 -17 -17 -16 -16
-0 -1 -0 0 0 0 -1 -1 -2 -3 -5 -4 -6 -6 -5 -8 -7 -7 -8 -10 -15 -16 -17 -17 -18 -18 -18 -18 -18 -18 -18 -18 -19 -19 -20 -20 -19 -20 -20 -19 -19 -19 -18 -17